Weather History for Big Bear City, CA

Change the Weather History Date:

Friday, February 15, 2013

  Actual Average (KBUO) Record (KBUO)
Temperature  
Mean Temperature 36 °F -  
Max Temperature 48 °F 57 °F 71 °F (1997)
Min Temperature 23 °F 40 °F 33 °F (2001)
Degree Days  
Heating Degree Days 30    
Moisture  
Dew Point 9 °F    
Average Humidity 38    
Maximum Humidity 80    
Minimum Humidity 13    
Precipitation  
Precipitation 0.00 in - - ()
Sea Level Pressure  
Sea Level Pressure 30.35 in    
Wind  
Wind Speed 8 mph (ENE)    
Max Wind Speed 18 mph    
Max Gust Speed 28 mph    
Visibility 10 miles    
Events      
Averages and records for this station are not official NWS values.
T = Trace of Precipitation, MM = Missing Value Source: NWS Daily Summary

Daily Weather History Graph

Daily Weather History Graph

Search for Another Location

Airport:

Trip Planner

Search our weather history database for the weather conditions in past years. The results will help you decide how hot, cold, wet, or windy it might be!

Date:

Astronomy

Feb. 15, 2013 Rise Set
Actual Time 6:32 AM PST 5:31 PM PST
Civil Twilight 6:06 AM PST 5:57 PM PST
Nautical Twilight 5:37 AM PST 6:26 PM PST
Astronomical Twilight 5:07 AM PST 6:55 PM PST
Moon 9:28 AM PST (2/15) 11:17 PM PST (2/15)
Length of Visible Light 11h 50m
Length of Day
10h 59m
Waxing Crescent, 31% of the Moon is Illuminated
Feb 15
Waxing Crescent
Feb 17
First Quarter
Feb 25
Full
Mar 4
Last Quarter
Mar 11
New

Hourly Weather History & Observations

Time (PST) Temp. Windchill Dew Point Humidity Pressure Visibility Wind Dir Wind Speed Gust Speed Precip Events Conditions
12:15 AM 23.0 °F - 17.6 °F 80% 30.33 in 10.0 mi Calm Calm - N/A   Clear
12:35 AM 23.0 °F - 17.6 °F 80% 30.32 in 10.0 mi Calm Calm - N/A   Clear
12:55 AM 24.8 °F 20.5 °F 17.6 °F 74% 30.32 in 10.0 mi East 3.5 mph - N/A   Clear
1:15 AM 23.0 °F - 17.6 °F 80% 30.32 in 10.0 mi Calm Calm - N/A   Clear
1:35 AM 23.0 °F 18.4 °F 17.6 °F 80% 30.31 in 10.0 mi East 3.5 mph - N/A   Clear
1:55 AM 23.0 °F 13.9 °F 15.8 °F 74% 30.31 in 10.0 mi ENE 8.1 mph - N/A   Clear
2:15 AM 24.8 °F 16.1 °F 15.8 °F 69% 30.30 in 10.0 mi ENE 8.1 mph - N/A   Clear
2:35 AM 26.6 °F 18.2 °F 14.0 °F 59% 30.30 in 10.0 mi ENE 8.1 mph - N/A   Clear
2:55 AM 26.6 °F 18.2 °F 14.0 °F 59% 30.30 in 10.0 mi ENE 8.1 mph - N/A   Clear
3:15 AM 28.4 °F 19.7 °F 14.0 °F 55% 30.30 in 10.0 mi ENE 9.2 mph - N/A   Clear
3:35 AM 28.4 °F 21.2 °F 14.0 °F 55% 30.30 in 10.0 mi ENE 6.9 mph - N/A   Clear
3:55 AM 24.8 °F 16.1 °F 14.0 °F 64% 30.30 in 10.0 mi ENE 8.1 mph - N/A   Clear
4:15 AM 23.0 °F 14.7 °F 14.0 °F 68% 30.30 in 10.0 mi ENE 6.9 mph - N/A   Clear
4:35 AM 24.8 °F 16.9 °F 14.0 °F 64% 30.31 in 10.0 mi ENE 6.9 mph - N/A   Clear
4:55 AM 24.8 °F 16.1 °F 14.0 °F 64% 30.31 in 10.0 mi East 8.1 mph - N/A   Clear
5:15 AM 26.6 °F 19.1 °F 14.0 °F 59% 30.32 in 10.0 mi ENE 6.9 mph - N/A   Clear
5:35 AM 26.6 °F 18.2 °F 14.0 °F 59% 30.32 in 10.0 mi ENE 8.1 mph - N/A   Clear
5:55 AM 26.6 °F 17.5 °F 14.0 °F 59% 30.33 in 10.0 mi ENE 9.2 mph - N/A   Clear
6:15 AM 26.6 °F 18.2 °F 12.2 °F 55% 30.33 in 10.0 mi ENE 8.1 mph - N/A   Clear
6:35 AM 28.4 °F 21.2 °F 12.2 °F 51% 30.33 in 10.0 mi East 6.9 mph - N/A   Clear
6:55 AM 30.2 °F 20.8 °F 10.4 °F 44% 30.34 in 10.0 mi East 11.5 mph - N/A   Clear
7:15 AM 32.0 °F 23.0 °F 10.4 °F 41% 30.34 in 10.0 mi East 11.5 mph - N/A   Clear
7:35 AM 35.6 °F 29.2 °F 5.0 °F 28% 30.35 in 10.0 mi East 8.1 mph - N/A   Clear
7:55 AM 37.4 °F 30.3 °F 5.0 °F 26% 30.36 in 10.0 mi ENE 10.4 mph - N/A   Clear
8:15 AM 37.4 °F 30.3 °F 5.0 °F 26% 30.36 in 10.0 mi East 10.4 mph - N/A   Clear
8:35 AM 41.0 °F 33.9 °F 5.0 °F 23% 30.36 in 10.0 mi ENE 12.7 mph - N/A   Clear
8:55 AM 41.0 °F 33.1 °F 5.0 °F 23% 30.36 in 10.0 mi East 15.0 mph - N/A   Clear
9:15 AM 41.0 °F 32.8 °F 5.0 °F 23% 30.36 in 10.0 mi ENE 16.1 mph 19.6 mph N/A   Clear
9:55 AM 42.8 °F 35.4 °F 5.0 °F 21% 30.37 in 10.0 mi ENE 15.0 mph 18.4 mph N/A   Clear
10:15 AM 42.8 °F 36.2 °F 6.8 °F 23% 30.37 in 10.0 mi ENE 12.7 mph - N/A   Clear
10:35 AM 44.6 °F 37.8 °F 6.8 °F 21% 30.36 in 10.0 mi ENE 15.0 mph - N/A   Clear
10:55 AM 44.6 °F 37.2 °F 8.6 °F 23% 30.36 in 10.0 mi ENE 17.3 mph 23.0 mph N/A   Clear
11:15 AM 44.6 °F 37.2 °F 8.6 °F 23% 30.36 in 10.0 mi ENE 17.3 mph 27.6 mph N/A   Clear
11:35 AM 46.4 °F 39.5 °F 6.8 °F 20% 30.36 in 10.0 mi ENE 17.3 mph 23.0 mph N/A   Clear
11:55 AM 46.4 °F 39.8 °F 8.6 °F 22% 30.36 in 10.0 mi ENE 16.1 mph 23.0 mph N/A   Clear
12:15 PM 46.4 °F 39.5 °F 5.0 °F 18% 30.36 in 10.0 mi ENE 17.3 mph - N/A   Clear
12:35 PM 46.4 °F 40.4 °F 5.0 °F 18% 30.35 in 10.0 mi ENE 13.8 mph 21.9 mph N/A   Clear
12:55 PM 46.4 °F 40.1 °F 6.8 °F 20% 30.35 in 10.0 mi NE 15.0 mph 23.0 mph N/A   Clear
1:15 PM 46.4 °F 39.5 °F 6.8 °F 20% 30.34 in 10.0 mi NE 17.3 mph 23.0 mph N/A   Clear
1:35 PM 46.4 °F 40.1 °F 6.8 °F 20% 30.34 in 10.0 mi ENE 15.0 mph 19.6 mph N/A   Clear
1:55 PM 46.4 °F 40.1 °F 5.0 °F 18% 30.33 in 10.0 mi ENE 15.0 mph - N/A   Clear
2:15 PM 48.2 °F - 3.2 °F 16% 30.34 in 10.0 mi ENE 17.3 mph 23.0 mph N/A   Clear
2:35 PM 48.2 °F - 1.4 °F 15% 30.33 in 10.0 mi ENE 17.3 mph - N/A   Clear
2:55 PM 48.2 °F - 1.4 °F 15% 30.33 in 10.0 mi ENE 18.4 mph - N/A   Clear
3:15 PM 48.2 °F - -0.4 °F 13% 30.33 in 10.0 mi ENE 15.0 mph - N/A   Clear
3:35 PM 48.2 °F - 1.4 °F 15% 30.33 in 10.0 mi ENE 16.1 mph - N/A   Clear
3:55 PM 46.4 °F 40.7 °F 1.4 °F 16% 30.33 in 10.0 mi ENE 12.7 mph 20.7 mph N/A   Clear
4:15 PM 46.4 °F 40.7 °F -0.4 °F 14% 30.33 in 10.0 mi ENE 12.7 mph 19.6 mph N/A   Clear
4:35 PM 44.6 °F 38.8 °F 1.4 °F 17% 30.34 in 10.0 mi ENE 11.5 mph 19.6 mph N/A   Clear
4:55 PM 44.6 °F 38.8 °F -0.4 °F 15% 30.34 in 10.0 mi ENE 11.5 mph - N/A   Clear
5:15 PM 42.8 °F 37.0 °F 3.2 °F 19% 30.34 in 10.0 mi ENE 10.4 mph - N/A   Clear
5:35 PM 41.0 °F 34.7 °F 3.2 °F 21% 30.34 in 10.0 mi ENE 10.4 mph - N/A   Clear
5:55 PM 37.4 °F 30.3 °F 5.0 °F 26% 30.35 in 10.0 mi ENE 10.4 mph - N/A   Clear
6:15 PM 37.4 °F 30.8 °F 5.0 °F 26% 30.36 in 10.0 mi ENE 9.2 mph - N/A   Clear
6:35 PM 35.6 °F 28.6 °F 6.8 °F 30% 30.36 in 10.0 mi ENE 9.2 mph - N/A   Clear
6:55 PM 35.6 °F 29.2 °F 6.8 °F 30% 30.37 in 10.0 mi NE 8.1 mph - N/A   Clear
7:15 PM 35.6 °F 31.7 °F 8.6 °F 33% 30.38 in 10.0 mi ENE 4.6 mph - N/A   Clear
7:35 PM 33.8 °F - 8.6 °F 35% 30.38 in 10.0 mi Calm Calm - N/A   Clear
7:55 PM 32.0 °F - 12.2 °F 44% 30.38 in 10.0 mi Calm Calm - N/A   Clear
8:15 PM 30.2 °F - 14.0 °F 51% 30.38 in 10.0 mi Calm Calm - N/A   Clear
8:35 PM 32.0 °F 27.5 °F 10.4 °F 41% 30.39 in 10.0 mi East 4.6 mph - N/A   Clear
8:55 PM 30.2 °F - 12.2 °F 47% 30.39 in 7.0 mi Calm Calm - N/A   Clear
9:15 PM 30.2 °F - 10.4 °F 44% 30.39 in 7.0 mi Calm Calm - N/A   Clear
9:35 PM 28.4 °F - 10.4 °F 47% 30.40 in 10.0 mi Calm Calm - N/A   Clear
9:55 PM 28.4 °F 24.6 °F 10.4 °F 47% 30.39 in 10.0 mi East 3.5 mph - N/A   Clear
10:15 PM 28.4 °F 23.3 °F 10.4 °F 47% 30.39 in 7.0 mi ENE 4.6 mph - N/A   Clear
10:35 PM 28.4 °F 24.6 °F 10.4 °F 47% 30.39 in 10.0 mi East 3.5 mph - N/A   Clear
10:55 PM 32.0 °F 26.4 °F 3.2 °F 30% 30.39 in 10.0 mi East 5.8 mph - N/A   Clear
11:15 PM 32.0 °F 27.5 °F 5.0 °F 32% 30.39 in 10.0 mi East 4.6 mph - N/A   Clear
11:35 PM 32.0 °F 27.5 °F 3.2 °F 30% 30.39 in 10.0 mi East 4.6 mph - N/A   Clear
11:55 PM 30.2 °F 25.4 °F 6.8 °F 37% 30.39 in 7.0 mi East 4.6 mph - N/A   Clear